Weather History for Medicine Lodge, KS

Change the Weather History Date:

Saturday, January 12, 2013

  Actual Average Record
Temperature  
Mean Temperature 29 °F 33 °F  
Max Temperature 38 °F 45 °F 75 °F (1928)
Min Temperature 20 °F 21 °F -15 °F (1912)
Degree Days  
Heating Degree Days 36 32  
Month to date heating degree days 361 384  
Since 1 July heating degree days 1943 2183  
Cooling Degree Days 0 0  
Month to date cooling degree days 0 0  
Year to date cooling degree days 0 0  
Moisture  
Dew Point 14 °F    
Average Humidity 62    
Maximum Humidity 81    
Minimum Humidity 42    
Precipitation  
Precipitation 0.00 in 0.02 in 0.25 in (1910)
Month to date precipitation 0.56 0.21  
Year to date precipitation 0.56 0.21  
Snow  
Snow 0.00 in 0.10 in - ()
Month to date snowfall T 0.7  
Since 1 July snowfall 1.0 3.6  
Snow Depth -    
Sea Level Pressure  
Sea Level Pressure 30.06 in    
Wind  
Wind Speed 17 mph (North)    
Max Wind Speed 25 mph    
Max Gust Speed 32 mph    
T = Trace of Precipitation, MM = Missing Value Source: NWS Daily Summary

Daily Weather History Graph

Daily Weather History Graph

Search for Another Location

Airport:

Trip Planner

Search our weather history database for the weather conditions in past years. The results will help you decide how hot, cold, wet, or windy it might be!

Date:

Astronomy

Jan. 12, 2013 Rise Set
Actual Time 7:47 AM CST 5:37 PM CST
Civil Twilight 7:19 AM CST 6:06 PM CST
Nautical Twilight 6:47 AM CST 6:38 PM CST
Astronomical Twilight 6:15 AM CST 7:09 PM CST
Moon 8:10 AM CST (1/12) 7:05 PM CST (1/12)
Length of Visible Light 10h 46m
Length of Day
9h 49m
New Moon, 1% of the Moon is Illuminated
Jan 12
New Moon
Jan 18
First Quarter
Jan 26
Full
Feb 3
Last Quarter
Feb 10
New

Hourly Weather History & Observations

Time (CST) Temp. Windchill Dew Point Humidity Pressure Visibility Wind Dir Wind Speed Gust Speed Precip Events Conditions
12:56 AM 36.0 °F 26.0 °F 27.0 °F 70% 29.90 in - North 17.3 mph 27.6 mph N/A   Unknown
1:56 AM 33.1 °F 22.6 °F 24.1 °F 70% 29.95 in - NNW 16.1 mph 24.2 mph N/A   Unknown
2:56 AM 30.9 °F 21.2 °F 23.0 °F 72% 29.98 in - North 12.7 mph - N/A   Unknown
3:56 AM 30.0 °F 18.7 °F 21.9 °F 72% 29.99 in - North 16.1 mph - N/A   Unknown
4:56 AM 28.9 °F 17.7 °F 19.9 °F 69% 29.99 in - North 15.0 mph - N/A   Unknown
5:56 AM 28.0 °F 16.1 °F 18.0 °F 66% 30.00 in - North 16.1 mph - N/A   Unknown
6:56 AM 28.0 °F 16.1 °F 16.0 °F 61% 30.03 in - North 16.1 mph - N/A   Unknown
7:56 AM 27.0 °F 15.2 °F 15.1 °F 61% 30.06 in - North 15.0 mph - N/A   Unknown
8:56 AM 27.0 °F 14.3 °F 12.0 °F 53% 30.09 in - NNE 17.3 mph 23.0 mph N/A   Unknown
9:56 AM 27.0 °F 12.5 °F 10.0 °F 49% 30.07 in - North 23.0 mph 32.2 mph N/A   Unknown
10:56 AM 27.0 °F 12.8 °F 10.0 °F 49% 30.08 in - North 21.9 mph 27.6 mph N/A   Unknown
11:56 AM 27.0 °F 13.2 °F 9.0 °F 47% 30.06 in - North 20.7 mph 29.9 mph N/A   Unknown
12:56 PM 28.0 °F 14.6 °F 10.9 °F 49% 30.03 in - North 20.7 mph 27.6 mph N/A   Unknown
1:56 PM 28.9 °F 16.5 °F 10.0 °F 45% 30.03 in - North 18.4 mph 24.2 mph N/A   Unknown
2:56 PM 28.9 °F 18.2 °F 10.9 °F 47% 30.06 in - North 13.8 mph - N/A   Unknown
3:56 PM 28.0 °F 16.5 °F 10.9 °F 49% 30.09 in - North 15.0 mph 21.9 mph N/A   Unknown
4:56 PM 28.0 °F 17.0 °F 9.0 °F 45% 30.09 in - North 13.8 mph - N/A   Unknown
5:56 PM 24.1 °F 11.5 °F 18.0 °F 77% 30.12 in - North 15.0 mph - N/A   Unknown
6:56 PM 23.0 °F 10.6 °F 17.1 °F 78% 30.11 in - North 13.8 mph - N/A   Unknown
7:56 PM 24.1 °F 11.5 °F 10.9 °F 57% 30.12 in - North 15.0 mph - N/A   Unknown
8:56 PM 23.0 °F 8.3 °F 10.9 °F 60% 30.15 in - North 19.6 mph 25.3 mph N/A   Unknown
9:56 PM 21.9 °F 6.9 °F 10.0 °F 60% 30.15 in - North 19.6 mph 27.6 mph N/A   Unknown
10:56 PM 21.0 °F 7.6 °F 9.0 °F 60% 30.17 in - North 15.0 mph - N/A   Unknown
11:56 PM 19.9 °F 6.7 °F 9.0 °F 62% 30.17 in - North 13.8 mph - N/A   Unknown